Simultaneous Nadir Overpasses (SNOs) Predictions

Prediction of SNOs between GOES-16 and LANDSAT-8 Satellite Orbit:

Table of predicted SNOs for the next 14.0 days since TLE Epoch: 5/2/2025
Index Date Time (GOES-16) GOES-16 Lat,Lon LANDSAT-8 Lat,Lon Distance(km) Time Diff (sec)
1 05/04/2025 03:58:26 -0.06, -87.25 -0.00, -87.03 25.33 80
2 05/06/2025 03:46:17 -0.06, -88.28 0.81, -84.11 473.79 80
3 05/06/2025 16:10:14 0.05, -88.57 0.18, -89.29 81.62 80
4 05/08/2025 15:55:24 0.05, -89.61 -0.61, -86.37 367.94 80
5 05/09/2025 04:19:29 -0.05, -89.87 -0.43, -91.58 194.81 80
6 05/11/2025 04:04:40 -0.05, -90.91 0.45, -88.67 255.23 80
7 05/11/2025 16:28:35 0.05, -91.20 0.59, -93.84 299.86 80
8 05/13/2025 16:13:46 0.04, -92.24 -0.25, -90.92 150.27 80
9 05/14/2025 04:37:49 -0.04, -92.50 -0.83, -96.12 412.36 80
10 05/16/2025 04:22:59 -0.03, -93.54 0.03, -93.21 37.81 80
